NORTHEAST SUFFOLK  -  Winter Weather Advisory Winter Weather Advisory     Winter Weather Advisory Winter Weather Advisory        NORTHERN NASSAU  -  Winter Weather Advisory Winter Weather Advisory        NORTHWEST SUFFOLK  -  Winter Weather Advisory Winter Weather Advisory     Winter Weather Advisory Winter Weather Advisory        SOUTHEAST SUFFOLK  -  Winter Weather Advisory Winter Weather Advisory     Winter Weather Advisory Winter Weather Advisory        SOUTHERN NASSAU  -  Winter Weather Advisory Winter Weather Advisory        SOUTHWEST SUFFOLK  -  Winter Weather Advisory Winter Weather Advisory     Winter Weather Advisory Winter Weather Advisory      

Active alerts

Northern Nassau
  Details for Northern Nassau Winter Weather Advisory
Southern Nassau
  Details for Southern Nassau Winter Weather Advisory
Northwest Suffolk
  Details for Northwest Suffolk Winter Weather Advisory  +1 additional alert
Southwest Suffolk
  Details for Southwest Suffolk Winter Weather Advisory  +1 additional alert
Northeast Suffolk
  Details for Northeast Suffolk Winter Weather Advisory  +1 additional alert
Southeast Suffolk
  Details for Southeast Suffolk Winter Weather Advisory  +1 additional alert


WXM80 ListenWXM80 Stop

You find our weather info also at:

UK Metoffice

WeatherCloud

Weather Underground

Northeastern Weather Network

AWEKAS

Citizen Weather Observer Program (CWOP)

HAMweather, WeatherForYou, PWS Weather


Weather Underground History page Text

Daily Summary for June 5, 2017 Units:  English    Metric   Both
« Previous Day
Next Day »
Daily Weekly Monthly Yearly Custom
  High: Low: Average:
Temperature: 63.0 °F 57.5 °F 60.3 °F
Dew Point: 61.2 °F 55.5 °F 59.1 °F
Humidity: 97 % 93 % 96 %
Wind Speed: 7.0 mph 0.0 mph 1.4 mph
Wind Gust: 11.5 mph - -
Wind:- - ENE
Pressure: 29.83 in 29.70 in -
Precipitation: 0.05 in    
Historical Graphs
 
 
Tabular Data for June 5, 2017
Time Temperature Dew Point Pressure Wind Wind Speed Wind Gust Humidity Rainfall Rate (Hourly)
00:02 57.6 °F 55.6 °F 29.80 in Calm     93 % 0.00 in
00:07 57.5 °F 55.5 °F 29.80 in Calm     93 % 0.00 in
00:12 57.5 °F 55.5 °F 29.80 in Calm     93 % 0.00 in
00:17 57.5 °F 55.8 °F 29.81 in NE 0.1 mph 1.0 mph 94 % 0.00 in
00:22 57.6 °F 55.9 °F 29.83 in North 2.7 mph 5.0 mph 94 % 0.00 in
00:27 57.7 °F 56.0 °F 29.82 in NNE 0.5 mph 3.5 mph 94 % 0.00 in
00:32 57.8 °F 56.1 °F 29.81 in NE 0.3 mph 3.5 mph 94 % 0.01 in
00:37 57.9 °F 56.5 °F 29.80 in Calm     95 % 0.01 in
00:42 58.1 °F 56.7 °F 29.80 in Calm     95 % 0.01 in
00:47 58.2 °F 56.8 °F 29.81 in Calm   1.2 mph 95 % 0.02 in
00:52 58.2 °F 56.8 °F 29.80 in Calm     95 % 0.03 in
00:57 58.3 °F 56.9 °F 29.80 in Calm     95 % 0.03 in
01:03 58.3 °F 56.9 °F 29.80 in NE 0.8 mph 1.2 mph 95 % 0.03 in
01:08 58.4 °F 57.0 °F 29.79 in NE 0.1 mph 1.2 mph 95 % 0.03 in
01:13 58.4 °F 57.0 °F 29.79 in Calm     95 % 0.03 in
01:18 58.4 °F 57.0 °F 29.80 in NE 0.1 mph 2.3 mph 95 % 0.03 in
01:23 58.4 °F 57.0 °F 29.80 in Calm     95 % 0.03 in
01:28 58.4 °F 57.0 °F 29.79 in Calm     95 % 0.03 in
01:33 58.4 °F 57.0 °F 29.79 in Calm     95 % 0.02 in
01:38 58.4 °F 57.0 °F 29.78 in Calm     95 % 0.02 in
01:43 58.4 °F 57.0 °F 29.77 in Calm     95 % 0.02 in
01:48 58.3 °F 56.9 °F 29.77 in NE 0.2 mph 1.0 mph 95 % 0.01 in
01:50 58.4 °F 57.0 °F 29.77 in Calm   1.0 mph 95 % 0.00 in
01:56 58.3 °F 56.9 °F 29.77 in Calm   2.0 mph 95 % 0.00 in
02:01 58.3 °F 56.9 °F 29.76 in Calm     95 % 0.00 in
02:06 58.2 °F 56.8 °F 29.76 in Calm   1.2 mph 95 % 0.00 in
02:11 58.2 °F 56.8 °F 29.76 in Calm     95 % 0.00 in
02:16 58.2 °F 56.8 °F 29.76 in Calm   2.3 mph 95 % 0.00 in
02:21 58.2 °F 56.8 °F 29.76 in Calm     95 % 0.00 in
02:26 58.2 °F 56.8 °F 29.76 in Calm     95 % 0.00 in
02:31 58.2 °F 56.8 °F 29.76 in Calm   1.0 mph 95 % 0.00 in
02:36 58.2 °F 56.8 °F 29.76 in NE 0.2 mph 1.2 mph 95 % 0.00 in
02:41 58.3 °F 56.9 °F 29.76 in North 0.2 mph 2.3 mph 95 % 0.00 in
02:46 58.3 °F 56.9 °F 29.75 in NE 1.6 mph 4.0 mph 95 % 0.00 in
02:51 58.4 °F 57.3 °F 29.75 in NE 0.8 mph 3.5 mph 96 % 0.01 in
02:56 58.5 °F 57.4 °F 29.75 in ENE 1.5 mph 3.5 mph 96 % 0.01 in
03:01 58.6 °F 57.5 °F 29.75 in Calm     96 % 0.01 in
03:06 58.6 °F 57.5 °F 29.75 in Calm     96 % 0.01 in
03:11 58.7 °F 57.6 °F 29.74 in Calm     96 % 0.01 in
03:16 58.7 °F 57.6 °F 29.74 in Calm     96 % 0.01 in
03:21 58.7 °F 57.6 °F 29.74 in Calm   1.2 mph 96 % 0.01 in
03:26 58.7 °F 57.6 °F 29.74 in Calm     96 % 0.01 in
03:31 58.7 °F 57.6 °F 29.74 in Calm     96 % 0.01 in
03:37 58.7 °F 57.6 °F 29.74 in Calm     96 % 0.01 in
03:42 58.7 °F 57.6 °F 29.74 in Calm     96 % 0.01 in
03:47 58.7 °F 57.6 °F 29.74 in Calm     96 % 0.01 in
03:52 58.7 °F 57.6 °F 29.73 in NE 0.3 mph 1.2 mph 96 % 0.00 in
03:57 58.7 °F 57.6 °F 29.73 in Calm     96 % 0.01 in
04:02 58.7 °F 57.6 °F 29.72 in NE 0.2 mph 2.3 mph 96 % 0.01 in
04:07 58.7 °F 57.6 °F 29.73 in Calm     96 % 0.01 in
04:12 58.7 °F 57.6 °F 29.73 in Calm     96 % 0.01 in
04:17 58.7 °F 57.6 °F 29.73 in Calm     96 % 0.01 in
04:22 58.7 °F 57.6 °F 29.73 in Calm     96 % 0.01 in
04:27 58.7 °F 57.6 °F 29.73 in Calm     96 % 0.01 in
04:32 58.7 °F 57.6 °F 29.72 in Calm     96 % 0.01 in
04:37 58.7 °F 57.6 °F 29.72 in Calm     96 % 0.01 in
04:42 58.7 °F 57.6 °F 29.72 in Calm     96 % 0.01 in
04:47 58.7 °F 57.6 °F 29.72 in Calm     96 % 0.01 in
04:52 58.8 °F 57.7 °F 29.72 in Calm     96 % 0.01 in
04:57 58.8 °F 57.7 °F 29.72 in Calm     96 % 0.00 in
05:02 58.8 °F 57.7 °F 29.72 in Calm     96 % 0.00 in
05:07 58.8 °F 57.7 °F 29.72 in Calm     96 % 0.00 in
05:12 58.9 °F 57.8 °F 29.72 in Calm     96 % 0.00 in
05:17 58.9 °F 57.8 °F 29.71 in Calm     96 % 0.00 in
05:22 59.0 °F 57.9 °F 29.71 in Calm     96 % 0.00 in
05:27 59.0 °F 57.9 °F 29.71 in Calm     96 % 0.00 in
05:32 59.1 °F 58.0 °F 29.71 in Calm     96 % 0.00 in
05:37 59.1 °F 58.0 °F 29.71 in NE 0.6 mph 2.3 mph 96 % 0.00 in
05:42 59.1 °F 58.0 °F 29.71 in Calm     96 % 0.00 in
05:47 59.1 °F 58.0 °F 29.72 in Calm     96 % 0.00 in
05:49 59.2 °F 58.1 °F 29.71 in Calm   1.2 mph 96 % 0.00 in
05:54 59.2 °F 58.1 °F 29.71 in Calm   2.3 mph 96 % 0.00 in
05:59 59.3 °F 58.4 °F 29.71 in Calm   2.3 mph 97 % 0.00 in
06:04 59.4 °F 58.5 °F 29.72 in Calm     97 % 0.00 in
06:09 59.5 °F 58.6 °F 29.72 in Calm   1.2 mph 97 % 0.00 in
06:14 59.5 °F 58.6 °F 29.72 in NE 0.2 mph 1.2 mph 97 % 0.00 in
06:19 59.6 °F 58.7 °F 29.72 in NE 1.4 mph 3.5 mph 97 % 0.00 in
06:25 59.7 °F 58.8 °F 29.72 in NNE 0.6 mph 2.3 mph 97 % 0.00 in
06:30 59.8 °F 58.9 °F 29.72 in ENE 0.7 mph 2.3 mph 97 % 0.00 in
06:35 59.8 °F 58.9 °F 29.72 in NE 1.3 mph 2.3 mph 97 % 0.00 in
06:40 59.8 °F 58.9 °F 29.72 in ENE 2.1 mph 4.6 mph 97 % 0.00 in
06:45 59.8 °F 58.9 °F 29.72 in ENE 2.5 mph 4.6 mph 97 % 0.00 in
06:50 59.8 °F 58.9 °F 29.72 in ENE 2.2 mph 4.6 mph 97 % 0.00 in
06:55 59.7 °F 58.8 °F 29.72 in ENE 0.4 mph 3.5 mph 97 % 0.00 in
07:00 59.7 °F 58.8 °F 29.72 in ENE 0.8 mph 3.5 mph 97 % 0.00 in
07:05 59.8 °F 58.9 °F 29.72 in NE 0.2 mph 1.2 mph 97 % 0.00 in
07:10 59.7 °F 58.8 °F 29.72 in Calm   1.2 mph 97 % 0.00 in
07:15 59.7 °F 58.8 °F 29.72 in ENE 2.1 mph 3.5 mph 97 % 0.00 in
07:20 59.7 °F 58.8 °F 29.72 in East 0.9 mph 3.5 mph 97 % 0.00 in
07:25 59.7 °F 58.8 °F 29.73 in ENE 1.8 mph 4.0 mph 97 % 0.00 in
07:30 59.6 °F 58.7 °F 29.72 in ENE 1.6 mph 3.5 mph 97 % 0.00 in
07:35 59.6 °F 58.7 °F 29.73 in NE 2.4 mph 4.6 mph 97 % 0.00 in
07:40 59.6 °F 58.7 °F 29.73 in NNE 2.7 mph 6.9 mph 97 % 0.00 in
07:45 59.6 °F 58.7 °F 29.73 in NE 2.8 mph 4.6 mph 97 % 0.00 in
07:50 59.6 °F 58.7 °F 29.73 in NE 4.0 mph 6.9 mph 97 % 0.00 in
07:55 59.5 °F 58.6 °F 29.73 in ENE 1.7 mph 3.5 mph 97 % 0.00 in
07:58 59.6 °F 58.7 °F 29.73 in ENE 4.2 mph 6.9 mph 97 % 0.00 in
08:03 59.4 °F 58.5 °F 29.73 in ENE 4.2 mph 8.0 mph 97 % 0.00 in
08:08 59.3 °F 58.4 °F 29.72 in ENE 5.7 mph 11.0 mph 97 % 0.00 in
08:13 59.2 °F 58.1 °F 29.73 in NE 2.8 mph 7.0 mph 96 % 0.00 in
08:18 59.3 °F 58.4 °F 29.73 in ENE 2.6 mph 4.6 mph 97 % 0.00 in
08:23 59.3 °F 58.4 °F 29.73 in NE 2.1 mph 4.0 mph 97 % 0.00 in
08:28 59.2 °F 58.1 °F 29.73 in ENE 2.5 mph 6.9 mph 96 % 0.00 in
08:33 59.3 °F 58.4 °F 29.73 in NE 2.2 mph 2.3 mph 97 % 0.00 in
08:38 59.3 °F 58.4 °F 29.73 in ENE 1.0 mph 4.6 mph 97 % 0.00 in
08:43 59.4 °F 58.5 °F 29.74 in Calm   1.2 mph 97 % 0.00 in
08:49 59.3 °F 58.4 °F 29.75 in ENE 2.2 mph 4.6 mph 97 % 0.00 in
08:54 59.3 °F 58.4 °F 29.75 in NE 1.0 mph 3.5 mph 97 % 0.00 in
08:59 59.3 °F 58.4 °F 29.75 in ENE 2.5 mph 8.1 mph 97 % 0.00 in
09:04 59.3 °F 58.2 °F 29.75 in NE 2.2 mph 6.9 mph 96 % 0.00 in
09:09 59.3 °F 58.2 °F 29.74 in ENE 1.7 mph 3.0 mph 96 % 0.00 in
09:14 59.4 °F 58.5 °F 29.74 in ENE 2.4 mph 4.6 mph 97 % 0.00 in
09:19 59.4 °F 58.5 °F 29.75 in ENE 2.4 mph 3.5 mph 97 % 0.00 in
09:24 59.4 °F 58.3 °F 29.75 in Calm   1.2 mph 96 % 0.00 in
09:29 59.6 °F 58.7 °F 29.75 in ENE 0.5 mph 1.2 mph 97 % 0.00 in
09:34 59.6 °F 58.5 °F 29.75 in ENE 0.8 mph 2.3 mph 96 % 0.00 in
09:39 59.7 °F 58.6 °F 29.75 in ENE 0.2 mph 1.2 mph 96 % 0.00 in
09:44 59.8 °F 58.7 °F 29.75 in NE 0.2 mph 1.2 mph 96 % 0.00 in
09:45 59.8 °F 58.7 °F 29.75 in Calm   1.2 mph 96 % 0.00 in
09:50 60.0 °F 59.1 °F 29.75 in NE 0.6 mph 2.3 mph 97 % 0.00 in
09:55 60.2 °F 59.3 °F 29.75 in NE 0.3 mph 1.2 mph 97 % 0.00 in
10:00 60.3 °F 59.4 °F 29.75 in NE 0.2 mph 1.2 mph 97 % 0.00 in
10:05 60.4 °F 59.3 °F 29.75 in NE 0.1 mph 1.2 mph 96 % 0.00 in
10:10 60.5 °F 59.4 °F 29.75 in NE 0.4 mph 1.2 mph 96 % 0.00 in
10:15 60.7 °F 59.8 °F 29.75 in NE 0.5 mph 1.2 mph 97 % 0.00 in
10:20 60.9 °F 60.0 °F 29.75 in NE 0.2 mph 1.2 mph 97 % 0.00 in
10:25 61.1 °F 60.0 °F 29.75 in NE 0.3 mph 1.2 mph 96 % 0.00 in
10:30 61.3 °F 60.4 °F 29.75 in Calm   1.2 mph 97 % 0.00 in
10:36 61.4 °F 60.2 °F 29.75 in Calm   2.0 mph 96 % 0.00 in
10:41 61.5 °F 60.3 °F 29.75 in ENE 1.0 mph 4.0 mph 96 % 0.00 in
10:46 61.4 °F 60.0 °F 29.75 in Calm   5.0 mph 95 % 0.00 in
10:51 61.5 °F 60.0 °F 29.75 in NE 2.0 mph 4.0 mph 95 % 0.00 in
10:56 61.5 °F 60.0 °F 29.75 in ENE 1.0 mph 4.0 mph 95 % 0.00 in
11:01 61.5 °F 60.1 °F 29.75 in NE 3.1 mph 5.8 mph 95 % 0.00 in
11:06 61.6 °F 60.2 °F 29.75 in ENE 2.7 mph 5.0 mph 95 % 0.00 in
11:11 61.5 °F 59.8 °F 29.75 in ENE 1.0 mph 5.0 mph 94 % 0.00 in
11:13 61.4 °F 59.7 °F 29.75 in ENE 3.0 mph 4.6 mph 94 % 0.00 in
11:18 61.4 °F 59.7 °F 29.75 in NE 1.8 mph 3.5 mph 94 % 0.00 in
11:23 61.3 °F 59.6 °F 29.75 in ENE 0.6 mph 3.5 mph 94 % 0.00 in
11:28 61.2 °F 59.5 °F 29.75 in ENE 2.1 mph 4.0 mph 94 % 0.00 in
11:33 61.1 °F 59.4 °F 29.75 in ENE 0.7 mph 2.3 mph 94 % 0.00 in
11:39 61.2 °F 59.5 °F 29.75 in ENE 1.0 mph 2.3 mph 94 % 0.00 in
11:44 61.2 °F 59.5 °F 29.75 in ENE 2.6 mph 4.0 mph 94 % 0.00 in
11:49 61.2 °F 59.5 °F 29.75 in NE 2.8 mph 5.8 mph 94 % 0.00 in
11:54 61.2 °F 59.5 °F 29.75 in ENE 2.8 mph 4.6 mph 94 % 0.00 in
11:59 61.2 °F 59.5 °F 29.75 in ENE 1.6 mph 3.5 mph 94 % 0.00 in
12:04 61.3 °F 59.6 °F 29.75 in ENE 3.8 mph 8.1 mph 94 % 0.00 in
12:09 61.3 °F 59.6 °F 29.75 in ENE 1.2 mph 2.3 mph 94 % 0.00 in
12:14 61.4 °F 59.7 °F 29.75 in ENE 3.0 mph 3.5 mph 94 % 0.00 in
12:19 61.3 °F 59.6 °F 29.75 in ENE 0.9 mph 3.5 mph 94 % 0.00 in
12:24 61.3 °F 59.6 °F 29.75 in ENE 3.2 mph 4.6 mph 94 % 0.00 in
12:29 61.3 °F 59.6 °F 29.74 in ENE 3.1 mph 8.1 mph 94 % 0.00 in
12:34 61.4 °F 59.7 °F 29.75 in ENE 3.4 mph 5.0 mph 94 % 0.00 in
12:39 61.4 °F 59.7 °F 29.74 in ENE 1.2 mph 3.5 mph 94 % 0.00 in
12:44 61.4 °F 60.0 °F 29.74 in ENE 2.1 mph 5.8 mph 95 % 0.00 in
12:49 61.5 °F 59.8 °F 29.74 in ENE 2.1 mph 3.5 mph 94 % 0.00 in
12:54 61.5 °F 60.1 °F 29.74 in ENE 2.3 mph 3.5 mph 95 % 0.00 in
12:59 61.4 °F 59.7 °F 29.74 in ENE 3.3 mph 6.9 mph 94 % 0.00 in
13:04 61.4 °F 59.7 °F 29.74 in ENE 0.9 mph 3.5 mph 94 % 0.00 in
13:09 61.5 °F 60.1 °F 29.74 in ENE 1.3 mph 2.3 mph 95 % 0.00 in
13:14 61.5 °F 60.1 °F 29.74 in East 2.3 mph 3.5 mph 95 % 0.00 in
13:19 61.5 °F 60.1 °F 29.74 in ENE 1.6 mph 3.5 mph 95 % 0.00 in
13:24 61.6 °F 60.2 °F 29.74 in East 1.6 mph 5.8 mph 95 % 0.00 in
13:29 61.6 °F 60.2 °F 29.74 in NE 2.8 mph 3.5 mph 95 % 0.00 in
13:34 61.7 °F 60.3 °F 29.74 in ENE 1.1 mph 3.5 mph 95 % 0.00 in
13:39 61.8 °F 60.4 °F 29.73 in ENE 1.1 mph 2.3 mph 95 % 0.00 in
13:44 62.1 °F 60.7 °F 29.73 in ENE 1.1 mph 3.5 mph 95 % 0.00 in
13:49 62.3 °F 60.8 °F 29.73 in ENE 1.1 mph 2.3 mph 95 % 0.00 in
13:55 62.3 °F 60.8 °F 29.73 in ENE 2.4 mph 3.5 mph 95 % 0.00 in
14:00 62.5 °F 60.7 °F 29.73 in NE 1.2 mph 2.3 mph 94 % 0.00 in
14:05 62.7 °F 61.2 °F 29.73 in ENE 1.1 mph 2.3 mph 95 % 0.00 in
14:10 62.9 °F 61.1 °F 29.73 in ENE 1.4 mph 2.3 mph 94 % 0.00 in
14:11 62.9 °F 61.1 °F 29.73 in ENE 0.8 mph 2.3 mph 94 % 0.00 in
14:16 62.9 °F 61.1 °F 29.73 in ENE 1.4 mph 3.5 mph 94 % 0.00 in
14:21 63.0 °F 61.2 °F 29.73 in East 1.6 mph 4.6 mph 94 % 0.00 in
14:26 63.0 °F 60.9 °F 29.73 in ENE 1.8 mph 2.3 mph 93 % 0.00 in
14:31 62.9 °F 60.8 °F 29.73 in ENE 1.5 mph 3.5 mph 93 % 0.00 in
14:36 62.9 °F 60.8 °F 29.73 in ENE 1.9 mph 4.0 mph 93 % 0.00 in
14:41 62.8 °F 60.7 °F 29.72 in ENE 1.5 mph 3.5 mph 93 % 0.00 in
14:46 62.7 °F 60.6 °F 29.73 in ENE 1.0 mph 3.0 mph 93 % 0.00 in
14:52 62.8 °F 60.7 °F 29.73 in ENE 1.6 mph 3.5 mph 93 % 0.00 in
14:57 62.8 °F 60.7 °F 29.73 in ENE 3.3 mph 6.9 mph 93 % 0.00 in
15:02 62.7 °F 60.6 °F 29.73 in NE 2.9 mph 7.0 mph 93 % 0.00 in
15:07 62.7 °F 60.6 °F 29.73 in ENE 3.6 mph 4.6 mph 93 % 0.00 in
15:12 62.7 °F 60.6 °F 29.73 in ENE 1.8 mph 3.5 mph 93 % 0.00 in
15:17 62.7 °F 60.6 °F 29.73 in ENE 2.3 mph 4.6 mph 93 % 0.00 in
15:18 62.7 °F 60.6 °F 29.73 in ENE 2.1 mph 4.6 mph 93 % 0.00 in
15:23 62.7 °F 60.6 °F 29.73 in ENE 3.4 mph 6.9 mph 93 % 0.00 in
15:28 62.7 °F 60.6 °F 29.73 in ENE 1.3 mph 3.5 mph 93 % 0.00 in
15:33 62.6 °F 60.5 °F 29.73 in NE 2.5 mph 6.9 mph 93 % 0.00 in
15:38 62.5 °F 60.4 °F 29.72 in ENE 1.7 mph 3.5 mph 93 % 0.00 in
15:43 62.6 °F 60.5 °F 29.72 in NE 2.0 mph 3.5 mph 93 % 0.00 in
15:48 62.7 °F 60.9 °F 29.72 in ENE 0.6 mph 2.3 mph 94 % 0.00 in
15:53 62.7 °F 60.9 °F 29.72 in ENE 0.9 mph 2.3 mph 94 % 0.00 in
15:58 62.7 °F 60.9 °F 29.71 in East 1.2 mph 2.3 mph 94 % 0.00 in
16:03 62.8 °F 61.0 °F 29.72 in South 0.9 mph 2.3 mph 94 % 0.00 in
16:08 62.9 °F 61.1 °F 29.72 in ENE 0.6 mph 2.3 mph 94 % 0.00 in
16:13 62.9 °F 61.1 °F 29.72 in ENE 1.2 mph 2.3 mph 94 % 0.00 in
16:18 62.9 °F 61.1 °F 29.71 in ENE 0.9 mph 2.3 mph 94 % 0.00 in
16:23 63.0 °F 60.9 °F 29.72 in ENE 0.2 mph 2.3 mph 93 % 0.00 in
16:28 63.0 °F 61.2 °F 29.72 in ENE 0.4 mph 1.2 mph 94 % 0.00 in
16:33 62.9 °F 61.1 °F 29.72 in ENE 0.8 mph 2.3 mph 94 % 0.00 in
16:38 62.9 °F 61.1 °F 29.72 in ENE 0.6 mph 2.3 mph 94 % 0.00 in
16:43 62.8 °F 61.0 °F 29.72 in ENE 0.3 mph 1.2 mph 94 % 0.00 in
16:48 62.8 °F 61.0 °F 29.72 in ENE 1.1 mph 2.0 mph 94 % 0.00 in
16:53 62.7 °F 60.9 °F 29.72 in ENE 1.1 mph 2.3 mph 94 % 0.00 in
16:58 62.7 °F 60.9 °F 29.72 in ENE 0.2 mph 1.2 mph 94 % 0.00 in
17:03 62.6 °F 60.8 °F 29.72 in ENE 0.5 mph 2.0 mph 94 % 0.00 in
17:08 62.6 °F 60.8 °F 29.72 in East 1.0 mph 2.3 mph 94 % 0.00 in
17:13 62.5 °F 60.7 °F 29.72 in East 1.3 mph 2.3 mph 94 % 0.00 in
17:18 62.5 °F 61.0 °F 29.72 in ESE 1.7 mph 3.0 mph 95 % 0.00 in
17:23 62.5 °F 61.0 °F 29.71 in ESE 1.2 mph 2.3 mph 95 % 0.00 in
17:28 62.5 °F 61.0 °F 29.72 in ESE 1.1 mph 3.5 mph 95 % 0.00 in
17:33 62.5 °F 61.0 °F 29.71 in ESE 1.8 mph 3.5 mph 95 % 0.00 in
17:38 62.5 °F 61.0 °F 29.71 in ESE 1.6 mph 2.3 mph 95 % 0.00 in
17:43 62.4 °F 60.9 °F 29.71 in East 2.0 mph 3.5 mph 95 % 0.00 in
17:48 62.4 °F 60.9 °F 29.71 in East 1.5 mph 3.5 mph 95 % 0.00 in
17:53 62.3 °F 60.8 °F 29.70 in East 1.9 mph 3.5 mph 95 % 0.00 in
17:58 62.3 °F 60.8 °F 29.70 in ESE 1.1 mph 3.5 mph 95 % 0.00 in
18:03 62.3 °F 60.8 °F 29.70 in ESE 1.0 mph 2.3 mph 95 % 0.00 in
18:08 62.2 °F 60.8 °F 29.70 in ESE 0.6 mph 2.0 mph 95 % 0.00 in
18:13 62.3 °F 60.8 °F 29.70 in ESE 1.0 mph 2.3 mph 95 % 0.00 in
18:18 62.2 °F 60.8 °F 29.70 in ESE 0.6 mph 2.3 mph 95 % 0.00 in
18:23 62.2 °F 60.8 °F 29.71 in ESE 0.7 mph 2.3 mph 95 % 0.00 in
18:28 62.1 °F 60.7 °F 29.71 in East 1.2 mph 3.5 mph 95 % 0.00 in
18:34 62.0 °F 60.6 °F 29.72 in East 1.1 mph 2.3 mph 95 % 0.00 in
18:39 61.9 °F 60.5 °F 29.72 in East 1.1 mph 3.0 mph 95 % 0.00 in
18:44 61.9 °F 60.5 °F 29.72 in East 0.9 mph 2.3 mph 95 % 0.00 in
18:49 61.7 °F 60.3 °F 29.72 in East 1.5 mph 2.3 mph 95 % 0.00 in
18:54 61.6 °F 60.4 °F 29.72 in East 0.3 mph 1.2 mph 96 % 0.00 in
18:55 61.6 °F 60.4 °F 29.73 in East 0.5 mph 1.2 mph 96 % 0.00 in
19:00 61.5 °F 60.3 °F 29.72 in East 1.2 mph 2.3 mph 96 % 0.00 in
19:05 61.4 °F 60.2 °F 29.72 in East 1.4 mph 2.3 mph 96 % 0.00 in
19:10 61.4 °F 60.2 °F 29.72 in East 1.1 mph 2.3 mph 96 % 0.00 in
19:15 61.3 °F 60.2 °F 29.72 in East 1.6 mph 2.3 mph 96 % 0.00 in
19:21 61.3 °F 60.1 °F 29.73 in East 1.0 mph 3.0 mph 96 % 0.00 in
19:26 61.2 °F 60.1 °F 29.73 in ENE 1.0 mph 2.0 mph 96 % 0.00 in
19:31 61.2 °F 60.1 °F 29.73 in Calm   2.0 mph 96 % 0.00 in
19:36 61.2 °F 60.1 °F 29.73 in Calm   2.0 mph 96 % 0.00 in
19:41 61.1 °F 60.0 °F 29.72 in ENE 0.7 mph 2.3 mph 96 % 0.00 in
19:46 61.1 °F 60.0 °F 29.73 in ENE 1.3 mph 3.5 mph 96 % 0.00 in
19:51 61.0 °F 59.9 °F 29.73 in ENE 1.0 mph 2.0 mph 96 % 0.00 in
19:56 61.0 °F 59.9 °F 29.73 in ENE 1.0 mph 2.0 mph 96 % 0.00 in
20:01 60.9 °F 59.8 °F 29.72 in ENE 1.9 mph 3.5 mph 96 % 0.00 in
20:06 60.9 °F 59.8 °F 29.72 in ENE 1.4 mph 2.3 mph 96 % 0.00 in
20:11 60.8 °F 59.9 °F 29.72 in ENE 1.0 mph 3.0 mph 97 % 0.00 in
20:16 60.8 °F 59.9 °F 29.72 in ENE 1.0 mph 3.0 mph 97 % 0.00 in
20:21 60.8 °F 59.9 °F 29.71 in ENE 1.0 mph 2.0 mph 97 % 0.00 in
20:26 60.7 °F 59.8 °F 29.71 in ENE 1.0 mph 3.0 mph 97 % 0.00 in
20:31 60.7 °F 59.8 °F 29.71 in ENE 0.7 mph 2.3 mph 97 % 0.00 in
20:36 60.7 °F 59.8 °F 29.71 in Calm   1.2 mph 97 % 0.00 in
20:41 60.7 °F 59.9 °F 29.71 in ENE 1.0 mph 2.0 mph 97 % 0.00 in
20:46 60.7 °F 59.9 °F 29.71 in Calm   2.0 mph 97 % 0.00 in
20:51 60.8 °F 59.9 °F 29.71 in ENE 1.0 mph 2.0 mph 97 % 0.00 in
20:56 60.8 °F 59.9 °F 29.71 in ENE 1.0 mph 2.0 mph 97 % 0.00 in
21:01 60.8 °F 59.9 °F 29.72 in ENE 1.0 mph 3.5 mph 97 % 0.00 in
21:06 60.7 °F 59.8 °F 29.72 in ENE 3.7 mph 6.9 mph 97 % 0.00 in
21:11 60.5 °F 59.6 °F 29.72 in ENE 3.4 mph 8.1 mph 97 % 0.00 in
21:16 60.4 °F 59.5 °F 29.71 in East 3.8 mph 8.1 mph 97 % 0.00 in
21:21 60.3 °F 59.4 °F 29.71 in ENE 3.8 mph 6.9 mph 97 % 0.00 in
21:26 60.2 °F 59.3 °F 29.72 in NE 4.0 mph 6.9 mph 97 % 0.00 in
21:31 60.1 °F 59.2 °F 29.72 in ENE 5.1 mph 8.1 mph 97 % 0.00 in
21:39 60.1 °F 59.2 °F 29.71 in ENE 2.4 mph 3.5 mph 97 % 0.00 in
21:44 60.1 °F 59.2 °F 29.71 in East 2.9 mph 4.6 mph 97 % 0.00 in
21:49 60.1 °F 59.2 °F 29.70 in East 3.7 mph 4.6 mph 97 % 0.00 in
21:54 60.0 °F 59.1 °F 29.70 in East 3.0 mph 5.0 mph 97 % 0.00 in
21:59 60.0 °F 59.1 °F 29.70 in East 4.2 mph 5.8 mph 97 % 0.00 in
22:04 59.8 °F 58.9 °F 29.70 in East 3.0 mph 4.6 mph 97 % 0.00 in
22:09 59.7 °F 58.8 °F 29.70 in East 2.8 mph 3.5 mph 97 % 0.00 in
22:14 59.7 °F 58.8 °F 29.71 in East 3.2 mph 4.6 mph 97 % 0.00 in
22:19 59.6 °F 58.7 °F 29.71 in ENE 2.8 mph 3.5 mph 97 % 0.00 in
22:24 59.6 °F 58.7 °F 29.72 in ENE 2.9 mph 6.9 mph 97 % 0.00 in
22:29 59.5 °F 58.6 °F 29.71 in ENE 3.4 mph 4.6 mph 97 % 0.00 in
22:34 59.4 °F 58.5 °F 29.71 in ENE 3.2 mph 3.5 mph 97 % 0.00 in
22:40 59.4 °F 58.5 °F 29.71 in East 2.8 mph 4.6 mph 97 % 0.00 in
22:45 59.4 °F 58.5 °F 29.70 in East 2.8 mph 4.6 mph 97 % 0.00 in
22:50 59.3 °F 58.4 °F 29.70 in East 2.8 mph 4.6 mph 97 % 0.00 in
22:55 59.3 °F 58.4 °F 29.71 in ENE 3.5 mph 6.0 mph 97 % 0.00 in
23:00 59.3 °F 58.4 °F 29.70 in East 2.8 mph 3.5 mph 97 % 0.00 in
23:05 59.3 °F 58.4 °F 29.70 in ENE 3.5 mph 6.9 mph 97 % 0.00 in
23:10 59.1 °F 58.2 °F 29.70 in ENE 2.4 mph 4.0 mph 97 % 0.00 in
23:15 58.9 °F 58.1 °F 29.71 in ENE 6.1 mph 10.4 mph 97 % 0.00 in
23:20 58.8 °F 58.0 °F 29.71 in ENE 5.7 mph 8.1 mph 97 % 0.00 in
23:25 58.6 °F 57.8 °F 29.72 in East 7.0 mph 10.4 mph 97 % 0.00 in
23:30 58.4 °F 57.6 °F 29.72 in NE 6.5 mph 9.2 mph 97 % 0.00 in
23:35 58.3 °F 57.5 °F 29.72 in ENE 5.8 mph 8.1 mph 97 % 0.00 in
23:40 58.3 °F 57.5 °F 29.72 in ENE 6.3 mph 11.5 mph 97 % 0.00 in
23:45 58.1 °F 57.3 °F 29.70 in ENE 5.6 mph 10.4 mph 97 % 0.00 in
23:50 57.9 °F 57.1 °F 29.71 in ENE 6.9 mph 10.4 mph 97 % 0.00 in
23:55 57.8 °F 57.0 °F 29.71 in NE 6.1 mph 7.0 mph 97 % 0.00 in
Crab Meadow Weather
Compliments of Weather Underground - 3 mb

Script developed by  Jim McMurry - jmcmurry@mwt.net Adapted for the template by  Wim van der Kuil - Leuven-Template.eu

Weather Terms: Tornado Warning - Strong rotation in a thunderstorm is indicated by Doppler radar or a tornado is sighted by skywarn spotters. These warnings are issued on a county by county basis by the local Weather Forecast office in Upton.